www.pogodaiklimat.ru

Погода и климат >> Архив погоды >> Уругвай >> Колония


ПОГОДА в Колонии

  • Прогноз погоды в Колонии
  • Монитор погоды в Колонии

АРХИВ ПОГОДЫ в Колонии

Время (UTC), дата Ветер
(напр.,м/с)
 
Видим.   Явления Облачность Т
(С)
Тd
(С)
f
(%)
Тe
(С)
Тes
(С)
Комфортность P
(гПа)
Po
(гПа)
Тmin
(С)
Tmax
(С)
R
(мм)
R24
(мм)
S
(см)
21 15.08 В 6 15 км 9/0
[Ac und Ci sp]
+10.6 +8.2 85 +7 +7 1021.1 1017.6
12 16.08 штиль 0 10 км 10/0
[Cs]
+11.5 +9.9 90 +11 +13 1016.2 1012.7
15 16.08 СЗ 6 12 км 10/0
[Cs]
+18.4 +11.3 63 +18 +21 1015.0 1011.5
18 16.08 Ю 4 9000 м дымка 10/0
[Cs]
+17.6 +11.9 69 +17 +21 1011.8 1008.3
21 16.08 В 5 5000 м дымка 10/0
[Cs]
+15.4 +11.3 77 +14 +14 1010.6 1007.1
12 17.08 ЮВ 9 1500 м гроза, ливневой дождь 10/8 100 м
[Cb calv As op]
+12.3 +12.0 98 +9 +9 1006.6 1003.1 3
15 17.08 ЮВ 8 1500 м гроза, ливневой дождь 10/9 100 м
[Cb calv As op]
+11.8 +11.5 98 +8 +8 1008.8 1005.3
18 17.08 Ю 8 8000 м дымка {гроза, дождь} 9/8 200 м
[Sc Ac As]
+13.3 +11.6 89 +10 +11 1008.9 1005.4 13
21 17.08 нст 2 15 км 1/0
[Ac cuf Cc]
+12.1 +10.3 89 +11 +11 1011.0 1007.5
12 18.08 Ю 13 18 км 3/1 300 м
[Cu hum Ac As Ci sp]
+8.3 +4.6 77 +3 +3 1023.6 1020.0 0.1
15 18.08 Ю 16 20 км 8/6 600 м
[Cu Sc Ci sp]
+9.4 +4.0 69 +4 +4 1025.0 1021.4
18 18.08 Ю 13 20 км 9/9 600 м
[Cu Sc Ac cuf]
+10.8 +4.0 63 +6 +6 1024.9 1021.3
21 18.08 Ю 14 20 км 8/5 600 м
[Cu Sc Ac und Ci fib]
+10.1 +0.2 50 +5 +5 1026.1 1022.5
12 19.08 Ю 10 18 км 9/8 600 м
[Cu Sc Ac und Cs]
+6.0 -0.4 63 0 0 1030.1 1026.4
15 19.08 Ю 7 20 км 9/6 600 м
[Cu Sc Ac und Cs]
+7.3 +0.4 62 +3 +4 1030.2 1026.5
21 19.08 Ю 7 18 км 9/6 600 м
[Cu Sc Ac und Ci fib]
+6.9 +1.0 66 +2 +2 1028.3 1024.6
12 20.08 СВ 4 20 км 10/8 1000 м
[Sc Ac As Cc]
+6.4 +2.7 77 +3 +3 1031.2 1027.5
15 20.08 ЮВ 10 20 км 9/5 600 м
[Sc Ac und]
+9.0 +3.0 66 +4 +4 1031.2 1027.6
18 20.08 ЮВ 7 20 км 5/4 1000 м
[Sc diur, vesp Ac As Ci sp]
+9.3 +2.9 64 +6 +7 1030.8 1027.1
21 20.08 ЮВ 8 20 км 9/3 600 м
[Sc diur, vesp Cs]
+7.7 +2.5 70 +3 +3 1030.9 1027.2
12 21.08 СВ 2 18 км 8/1 600 м
[Cu hum Ac und Ci fib]
+5.8 +2.7 80 +3 +5 1031.0 1027.3
15 21.08 ЮВ 10 20 км 3/1 600 м
[Cu hum Ac lent Ci fib]
+10.8 +4.3 64 +7 +7 1030.3 1026.7
18 21.08 ЮВ 13 20 км 6/1 1000 м
[Cu hum Ci fib]
+10.6 +5.0 68 +6 +6 1028.2 1024.6
21 21.08 ЮВ 10 20 км 6/0
[Ac lent Ci fib]
+9.2 +6.0 80 +4 +4 1027.7 1024.1
12 22.08 ЮЗ 5 15 км 10/3 1000 м
[Sc Ac und Cs]
+5.6 +4.3 91 +1 +1 1030.1 1026.4
15 22.08 ЮВ 5 18 км 9/1 1000 м
[Cu hum Ac und Ci sp]
+9.5 +6.1 79 +6 +9 1030.0 1026.3
18 22.08 ЮВ 7 20 км 1/0
[Ac lent Ci sp]
+12.0 +7.9 76 +9 +11 1027.9 1024.3

 

Местоположение метеостанции Колония (Уругвай): широта -34.45 долгота -57.83 высота над уровнем моря 22 м.

В архиве по умолчанию представлена погода в Колонии за последнюю неделю. Архивные данные за месяц целиком и за предыдущие месяцы, начиная с января 2011 года, Вы можете получить, выбрав интересующий диапазон дат из раскрывающегося списка и нажав кнопку "Ввод!".


*Определитесь, кто Вы:
робот инопланетянин человек

Внимание! Время в таблицах - всемирное. Для получения местного времени необходимо прибавить поправку, которая равна 0 ч.

Смотрите также архив погоды в соседних городах и на ближайших метеорологических станциях:

Погода в Буэнос-Айресе (Аргентина) (55 км)
Погода в Ла-Плате (Аргентина) (57 км)
Погода в Буэнос-Айресе (Аргентина) (61 км)
Погода в Эсейсе (Аргентина) (76 км)
Погода в Мерседесе (Уругвай) (135 км)
Погода в Мелилье (Уругвай) (149 км)
Погода во Флориде (Уругвай) (153 км)
Погода в Прадо (Уругвай) (156 км)
Погода в Карраско (Уругвай) (173 км)
Погода в Дурасно (Уругвай) (173 км)

Пояснения к столбцам:

Ветер - указаны скорость ветра в м/с - средняя за 10 мин, порывы в срок и между сроками (в фигурных скобках) и направление, откуда дует ветер: С - северный, СВ - северо-восточный, В - восточный, ЮВ - юго-восточный, Ю - южный, ЮЗ - юго-западный, З - западный, СЗ - северо-западный.
Видимость - горизонтальная дальность видимости в метрах или километрах. При видимости от 1 до 10 км при отсутствии осадков обычно наблюдается дымка, при ухудшении видимости до 1 км и менее - туман. В сухую погоду видимость может ухудшаться дымом, пылью или мглою.
Явления - указаны атмосферные явления, наблюдавшиеся в срок или в последний час перед сроком; фигурными скобками обозначены явления, наблюдавшиеся между сроками (за 1-3 часа до срока); квадратными скобками обозначены град или гололедные отложения с указанием их диаметра в мм.
Облачность - указаны через наклонную черту общая и нижняя облачность в баллах и высота нижней границы облаков в метрах; квадратными скобками обозначены формы облаков: Ci - перистые, Cs - перисто-слоистые, Cc - перисто-кучевые, Ac - высококучевые, As - высокослоистые, Sc - слоисто-кучевые, Ns - слоисто-дождевые, Cu - кучевые, Cb - кучево-дождевые. Подробнее классификацию облаков см. в Атласе облаков (PDF).
T - Температура воздуха - температура, измеренная на высоте 2 м над землей.
Td - Температура точки росы - температура, при понижении до которой содержащийся в воздухе водяной пар достигнет насыщения.
f - Относительная влажность воздуха - влажноcть воздуха, измеренная на высоте 2 м над землей.
Te - Эффективная температура - температура, которую ощущает одетый по сезону человек в тени. Характеристика душности погоды. При расчете учитывается влияние влажности воздуха и скорости ветра на теплоощущения человека.
Tes - Эффективная температура на солнце - температура, которую ощущает человек, с поправкой на солнечный нагрев. Характеристика знойности погоды. Зависит от высоты солнца над горизонтом, облачности и скорости ветра. Ночью, в пасмурную погоду, а также при ветре 12 м/с и более поправка равна нулю.
P - Атмосферное давление - приведенное к уровню моря атмосферное давление.
Po - Атмосферное давление - измеренное на уровне метеостанции атмосферное давление.
Tmin - Минимальная температура - минимум температуры воздуха на высоте 2 м над землей.
Tmax - Максимальная температура - максимум температуры воздуха на высоте 2 м над землей.
R - Количество осадков - Количество выпавших осадков за период времени, мм. При наведении курсора мыши на число - период времени, за который выпало указанное количество осадков.
R24 - Количество осадков - Количество выпавших осадков за 24 часа, мм.
S - Снежный покров - Высота снежного покрова, см. При наведении курсора мыши на число - состояние снежного покрова и степень покрытия местности в баллах.